Location: Poughquag
(41.6090°N, 73.6820°W)
Time: 03:30:20
(UTC-04:00)

Vanguard 1 - Pass Details

Date: 01 June 2020
Orbit: 650 x 3833 km, 34.2° (Epoch: 06 July)

Event Time Altitude Azimuth Distance (km) Brightness Sun altitude
Rises 03:49:06 0° 197° (SSW) 5,197 - -14.3°
Exits shadow 03:51:47 - 189° (S) 4,756 13.1 -14.0°
Reaches altitude 10° 03:52:44 10° 186° (S) 4,626 13.0 -13.8°
Maximum altitude 04:03:53 29° 133° (SE) 4,376 13.4 -12.4°
Drops below altitude 10° 04:19:51 10° 84° (E) 6,734 15.2 -10.3°
Sets 04:26:39 0° 75° (ENE) 7,946 16.0 -9.3°
